Total_Precipitation_Accumulation
0.49 0.58 0.55 0.46 0.36 0.34 0.33 0.26 0.21 0.26 0.30 0.26 0.18 0.17 0.17 0.21 0.21 0.25 0.32 0.26 0.27 0.37 0.47 0.52 0.54 0.50 0.49 0.51 0.50 0.44 0.38 0.35 0.34 0.32 0.26 0.22 0.19 0.19 0.20 0.22 0.23 0.22 0.21
0.64 0.70 0.77 0.72 0.58 0.55 0.55 0.50 0.43 0.41 0.40 0.37 0.29 0.22 0.21 0.26 0.27 0.29 0.35 0.36 0.38 0.42 0.55 0.68 0.74 0.70 0.65 0.65 0.62 0.58 0.55 0.51 0.50 0.48 0.44 0.38 0.32 0.28 0.27 0.27 0.28 0.26 0.23
0.90 0.92 0.96 0.89 0.80 0.74 0.75 0.76 0.71 0.60 0.49 0.43 0.40 0.34 0.33 0.33 0.34 0.35 0.43 0.54 0.57 0.53 0.56 0.62 0.67 0.72 0.75 0.79 0.80 0.79 0.78 0.69 0.63 0.60 0.60 0.56 0.51 0.44 0.40 0.38 0.36 0.34 0.29
1.19 1.22 1.27 1.15 1.02 1.00 1.10 1.14 1.05 0.94 0.77 0.70 0.63 0.56 0.49 0.49 0.49 0.53 0.57 0.67 0.74 0.70 0.65 0.58 0.58 0.64 0.70 0.79 0.83 0.85 0.79 0.71 0.70 0.72 0.72 0.71 0.66 0.62 0.56 0.53 0.50 0.45 0.40
1.61 1.58 1.58 1.53 1.46 1.48 1.50 1.36 1.29 1.13 1.03 0.96 0.77 0.72 0.61 0.62 0.66 0.66 0.70 0.74 0.76 0.75 0.72 0.66 0.60 0.61 0.63 0.71 0.77 0.80 0.79 0.77 0.79 0.75 0.73 0.75 0.77 0.75 0.63 0.57 0.56 0.53 0.49
2.27 2.25 2.15 2.00 1.89 1.81 1.67 1.58 1.47 1.30 1.15 1.05 0.83 0.77 0.71 0.72 0.75 0.73 0.69 0.64 0.61 0.58 0.60 0.61 0.62 0.58 0.53 0.56 0.61 0.65 0.70 0.75 0.74 0.72 0.72 0.76 0.77 0.71 0.63 0.59 0.57 0.56 0.56
2.94 2.91 2.79 2.50 2.27 2.14 1.97 1.86 1.65 1.48 1.28 1.11 1.08 0.95 0.76 0.71 0.71 0.64 0.57 0.51 0.51 0.51 0.50 0.49 0.46 0.45 0.42 0.45 0.47 0.48 0.55 0.65 0.72 0.76 0.78 0.76 0.73 0.69 0.65 0.63 0.62 0.62 0.61
3.33 3.25 3.17 3.00 2.70 2.47 2.23 1.99 1.81 1.64 1.36 1.14 1.11 1.07 0.87 0.72 0.58 0.46 0.40 0.37 0.37 0.40 0.41 0.42 0.43 0.42 0.40 0.39 0.43 0.48 0.52 0.60 0.68 0.72 0.74 0.77 0.78 0.77 0.78 0.79 0.78 0.77 0.73
3.70 3.56 3.36 3.02 2.72 2.51 2.32 2.07 1.84 1.66 1.41 1.15 1.02 1.02 0.95 0.85 0.66 0.47 0.35 0.30 0.27 0.26 0.27 0.27 0.27 0.26 0.28 0.29 0.33 0.43 0.48 0.49 0.56 0.61 0.67 0.73 0.77 0.78 0.80 0.81 0.81 0.83 0.83
3.47 3.20 3.05 2.91 2.62 2.27 1.95 1.69 1.48 1.28 1.13 0.98 0.83 0.73 0.68 0.65 0.65 0.58 0.42 0.31 0.25 0.22 0.19 0.17 0.17 0.19 0.22 0.25 0.33 0.41 0.45 0.45 0.49 0.52 0.52 0.55 0.59 0.64 0.69 0.76 0.81 0.85 0.88
3.07 2.77 2.56 2.36 2.05 1.65 1.31 1.08 0.91 0.83 0.77 0.71 0.65 0.60 0.58 0.55 0.53 0.54 0.48 0.34 0.27 0.25 0.23 0.22 0.22 0.21 0.21 0.23 0.28 0.39 0.44 0.39 0.39 0.40 0.41 0.43 0.45 0.49 0.55 0.63 0.71 0.77 0.82
2.58 2.22 1.87 1.51 1.24 1.03 0.85 0.72 0.62 0.56 0.52 0.50 0.47 0.44 0.43 0.45 0.47 0.48 0.47 0.39 0.31 0.25 0.20 0.18 0.18 0.17 0.16 0.18 0.22 0.30 0.28 0.28 0.27 0.27 0.28 0.29 0.30 0.31 0.35 0.43 0.51 0.59 0.68
1.92 1.62 1.29 1.06 0.87 0.72 0.62 0.52 0.45 0.41 0.38 0.37 0.36 0.36 0.36 0.35 0.33 0.33 0.34 0.32 0.27 0.20 0.16 0.15 0.15 0.15 0.16 0.18 0.20 0.25 0.23 0.22 0.20 0.18 0.17 0.17 0.17 0.18 0.21 0.25 0.31 0.39 0.49
1.35 1.08 0.87 0.72 0.62 0.54 0.47 0.41 0.37 0.34 0.31 0.30 0.29 0.27 0.25 0.22 0.20 0.19 0.20 0.20 0.21 0.19 0.16 0.14 0.12 0.11 0.11 0.13 0.16 0.19 0.18 0.19 0.17 0.15 0.13 0.11 0.11 0.11 0.12 0.14 0.17 0.21 0.26
0.81 0.68 0.56 0.49 0.44 0.42 0.37 0.32 0.29 0.26 0.23 0.21 0.18 0.15 0.14 0.13 0.13 0.13 0.14 0.17 0.21 0.22 0.17 0.12 0.10 0.07 0.06 0.08 0.10 0.10 0.13 0.15 0.13 0.12 0.10 0.08 0.08 0.08 0.09 0.10 0.11 0.14 0.16
0.52 0.47 0.41 0.36 0.32 0.27 0.22 0.18 0.17 0.15 0.15 0.15 0.14 0.13 0.14 0.13 0.12 0.12 0.12 0.13 0.15 0.20 0.18 0.10 0.07 0.06 0.06 0.07 0.08 0.09 0.10 0.10 0.10 0.10 0.09 0.09 0.09 0.09 0.10 0.10 0.12 0.14 0.15
0.32 0.29 0.26 0.23 0.20 0.18 0.16 0.15 0.15 0.15 0.16 0.15 0.14 0.13 0.13 0.12 0.11 0.10 0.10 0.10 0.10 0.14 0.17 0.10 0.07 0.07 0.09 0.11 0.11 0.13 0.13 0.14 0.14 0.17 0.17 0.15 0.14 0.12 0.13 0.14 0.16 0.16 0.16
0.21 0.18 0.16 0.15 0.15 0.15 0.14 0.13 0.13 0.12 0.12 0.11 0.10 0.09 0.09 0.08 0.10 0.10 0.09 0.09 0.10 0.13 0.16 0.15 0.11 0.10 0.11 0.14 0.16 0.17 0.11 0.09 0.13 0.17 0.17 0.14 0.13 0.13 0.13 0.13 0.13 0.12 0.10
0.18 0.16 0.14 0.12 0.11 0.11 0.10 0.09 0.09 0.10 0.09 0.08 0.08 0.08 0.07 0.07 0.09 0.09 0.11 0.12 0.13 0.13 0.19 0.23 0.19 0.16 0.13 0.12 0.17 0.15 0.15 0.23 0.15 0.13 0.12 0.09 0.08 0.07 0.07 0.06 0.06 0.06 0.05
0.13 0.11 0.10 0.09 0.09 0.08 0.07 0.06 0.06 0.06 0.07 0.06 0.05 0.05 0.05 0.06 0.08 0.11 0.12 0.14 0.18 0.21 0.24 0.27 0.22 0.17 0.16 0.14 0.23 0.23 0.21 0.25 0.21 0.12 0.11 0.08 0.07 0.05 0.05 0.05 0.06 0.05 0.04
0.10 0.08 0.05 0.04 0.03 0.03 0.02 0.02 0.02 0.03 0.04 0.04 0.03 0.03 0.03 0.03 0.06 0.10 0.12 0.17 0.23 0.28 0.28 0.30 0.27 0.23 0.20 0.22 0.26 0.27 0.29 0.26 0.21 0.15 0.16 0.15 0.17 0.22 0.25 0.20 0.14 0.11 0.06
0.05 0.03 0.02 0.02 0.01 0.01 0.00 0.00 0.00 0.02 0.03 0.05 0.06 0.05 0.04 0.03 0.04 0.07 0.10 0.15 0.22 0.27 0.29 0.32 0.31 0.31 0.28 0.32 0.37 0.39 0.42 0.40 0.33 0.23 0.26 0.21 0.19 0.28 0.32 0.32 0.26 0.16 0.09
0.06 0.04 0.03 0.02 0.03 0.01 0.00 0.00 0.00 0.02 0.06 0.09 0.10 0.10 0.07 0.05 0.08 0.11 0.10 0.10 0.14 0.14 0.23 0.34 0.40 0.40 0.42 0.47 0.55 0.54 0.51 0.50 0.46 0.37 0.44 0.40 0.31 0.36 0.29 0.29 0.33 0.27 0.20
0.08 0.07 0.05 0.05 0.05 0.02 0.00 0.00 0.00 0.03 0.08 0.09 0.09 0.11 0.14 0.15 0.11 0.08 0.08 0.13 0.19 0.23 0.26 0.33 0.46 0.49 0.48 0.50 0.57 0.59 0.58 0.55 0.51 0.50 0.56 0.55 0.39 0.39 0.34 0.49 0.53 0.46 0.36
0.10 0.08 0.07 0.08 0.09 0.06 0.01 0.00 0.00 0.03 0.07 0.07 0.07 0.07 0.08 0.12 0.09 0.09 0.11 0.21 0.27 0.32 0.27 0.36 0.47 0.52 0.53 0.56 0.57 0.58 0.65 0.70 0.64 0.53 0.54 0.57 0.51 0.43 0.45 0.64 0.64 0.65 0.55
0.11 0.09 0.09 0.10 0.12 0.10 0.02 0.00 0.01 0.03 0.07 0.08 0.11 0.13 0.09 0.08 0.10 0.10 0.10 0.20 0.29 0.32 0.42 0.62 0.75 0.75 0.71 0.69 0.63 0.64 0.73 0.75 0.74 0.70 0.60 0.60 0.65 0.58 0.59 0.69 0.76 0.72 0.67